Weather History for Ellensburg, WA

Change the Weather History Date:

Saturday, March 9, 2013

  Actual Average (KYKM) Record (KYKM)
Temperature  
Mean Temperature 42 °F 42 °F  
Max Temperature 61 °F 54 °F 71 °F (2005)
Min Temperature 24 °F 29 °F 4 °F (1951)
Degree Days  
Heating Degree Days 22 23  
Month to date heating degree days 221  
Since 1 July heating degree days 4748  
Cooling Degree Days 0 0  
Month to date cooling degree days 0  
Year to date cooling degree days 0  
Moisture  
Dew Point 25 °F    
Average Humidity 55    
Maximum Humidity 81    
Minimum Humidity 22    
Precipitation  
Precipitation 0.00 in 0.02 in 0.51 in (1989)
Month to date precipitation 0.22  
Year to date precipitation 2.14  
Snow  
Snow 0.00 in 0.00 in 0.10 in (1971)
Month to date snowfall 0.4  
Year to date snowfall 8.3  
Since 1 July snowfall 21.3  
Snow Depth -    
Sea Level Pressure  
Sea Level Pressure 30.33 in    
Wind  
Wind Speed 5 mph (NW)    
Max Wind Speed 21 mph    
Max Gust Speed 24 mph    
Visibility 10 miles    
Events      
T = Trace of Precipitation, MM = Missing Value Source: NWS Daily Summary

Daily Weather History Graph

Daily Weather History Graph

Search for Another Location

Airport:

Trip Planner

Search our weather history database for the weather conditions in past years. The results will help you decide how hot, cold, wet, or windy it might be!

Date:

Astronomy

Mar. 09, 2013 Rise Set
Actual Time 6:26 AM PST 5:59 PM PST
Civil Twilight 5:55 AM PST 6:30 PM PST
Nautical Twilight 5:20 AM PST 7:05 PM PST
Astronomical Twilight 4:44 AM PST 7:41 PM PST
Moon 4:59 AM PST (3/9) 4:02 PM PST (3/9)
Length of Visible Light 12h 34m
Length of Day
11h 33m
Waning Crescent, 5% of the Moon is Illuminated
Mar 9
Waning Crescent
Mar 11
New
Mar 19
First Quarter
Mar 27
Full
Apr 2
Last Quarter

Hourly Weather History & Observations

Time (PST) Temp. Windchill Dew Point Humidity Pressure Visibility Wind Dir Wind Speed Gust Speed Precip Events Conditions
12:53 AM 33.1 °F - 25.0 °F 72% 30.19 in 10.0 mi Calm Calm - N/A   Clear
1:53 AM 32.0 °F - 24.1 °F 73% 30.20 in 10.0 mi Calm Calm - N/A   Clear
2:53 AM 28.9 °F - 23.0 °F 78% 30.22 in 10.0 mi Calm Calm - N/A   Clear
3:53 AM 27.0 °F 23.0 °F 21.0 °F 78% 30.24 in 10.0 mi East 3.5 mph - N/A   Clear
4:53 AM 27.0 °F 23.0 °F 21.9 °F 81% 30.26 in 10.0 mi East 3.5 mph - N/A   Clear
5:53 AM 24.1 °F - 19.0 °F 81% 30.29 in 10.0 mi Calm Calm - N/A   Clear
6:53 AM 26.1 °F 21.9 °F 21.0 °F 81% 30.30 in 10.0 mi ENE 3.5 mph - N/A   Clear
7:53 AM 34.0 °F - 27.0 °F 75% 30.32 in - Calm Calm - N/A   Clear
8:53 AM 37.0 °F - 28.0 °F 70% 30.34 in 10.0 mi Calm Calm - N/A   Clear
9:53 AM 43.0 °F 41.3 °F 28.9 °F 58% 30.35 in 10.0 mi South 3.5 mph - N/A   Clear
10:53 AM 46.0 °F 44.8 °F 30.0 °F 54% 30.35 in 10.0 mi Variable 3.5 mph - N/A   Clear
11:53 AM 51.1 °F - 30.0 °F 44% 30.34 in 10.0 mi South 6.9 mph - N/A   Clear
12:53 PM 55.0 °F - 26.1 °F 33% 30.33 in 10.0 mi SSW 5.8 mph - N/A   Clear
1:53 PM 59.0 °F - 21.9 °F 24% 30.32 in 10.0 mi Variable 3.5 mph - N/A   Clear
2:53 PM 61.0 °F - 21.9 °F 22% 30.32 in 10.0 mi WNW 18.4 mph 24.2 mph N/A   Clear
3:53 PM 57.9 °F - 23.0 °F 26% 30.33 in 10.0 mi NW 19.6 mph - N/A   Clear
4:53 PM 55.0 °F - 21.9 °F 28% 30.33 in 10.0 mi NW 20.7 mph - N/A   Clear
5:53 PM 50.0 °F - 21.0 °F 32% 30.36 in 10.0 mi NNW 17.3 mph - N/A   Clear
6:53 PM 45.0 °F 37.9 °F 24.1 °F 44% 30.40 in 10.0 mi NW 16.1 mph - N/A   Clear
7:53 PM 44.1 °F 36.8 °F 25.0 °F 47% 30.41 in 10.0 mi NW 16.1 mph - N/A   Clear
8:53 PM 43.0 °F 36.0 °F 26.1 °F 51% 30.42 in 10.0 mi WNW 13.8 mph - N/A   Clear
9:53 PM 43.0 °F 35.7 °F 27.0 °F 53% 30.41 in 10.0 mi NW 15.0 mph 19.6 mph N/A   Clear
10:53 PM 39.9 °F 32.5 °F 26.1 °F 58% 30.41 in 10.0 mi NW 12.7 mph - N/A   Clear
11:53 PM 42.1 °F 35.2 °F 26.1 °F 53% 30.40 in 10.0 mi WNW 12.7 mph - N/A   Clear